Location: Unspecified
(49.2170°N, 0.0000°E)
Time: 15:15:56
(UTC+00:00)

Tiros 1 despin weight - Pass Details

Date: 22 January 2021
Orbit: 593 x 642 km, 48.2° (Epoch: 07 March)

Event Time Altitude Azimuth Distance (km) Brightness Sun altitude
Rises 14:40:29 0° 212° (SSW) 2,880 ? 13.7°
Reaches altitude 10° 14:43:08 10° 198° (SSW) 1,968 ? 13.5°
Maximum altitude 14:46:44 24° 145° (SE) 1,281 ? 13.1°
Drops below altitude 10° 14:50:18 10° 92° (E) 1,951 ? 12.8°
Sets 14:52:56 0° 79° (ENE) 2,849 ? 12.5°
